Regional Weather Roundup
Issued by NWS Albany, NY

Home | Current Version | Previous Version | Text Only | Print | Product List | Glossary On
Versions: 1 2 3 4 5 6 7 8 9 10 11 12 13 14 15 16 17 18 19 20 21 22 23 24 25 26 27 28 29 30 31 32 33 34 35 36 37 38 39 40 41 42 43 44 45 46 47 48 49 50
000
ASUS41 KALY 280310
RWRALY

NEW YORK STATE HOURLY WEATHER ROUNDUP
NATIONAL WEATHER SERVICE ALBANY NY
1000 PM EST MON FEB 27 2017

NOTE: "FAIR" INDICATES FEW OR NO CLOUDS BELOW 12,000 FEET WITH NO
SIGNIFICANT WEATHER AND/OR NO OBSTRUCTIONS TO VISIBILITY.

NYZ032-033-038>043-046>054-057>066-NYZ062>081-082-084-280400-
EAST


CITY           SKY/WX    TMP DP  RH WIND       PRES   REMARKS
ALBANY         PTCLDY    35  19  52 SW7       30.33S WCI  29
GLENS FALLS    CLOUDY    37  24  59 SW6       30.30S WCI  32
POUGHKEEPSIE   CLEAR     35  25  66 CALM      30.37R
NEWBURGH       PTCLDY    43  28  56 W6        30.38R
MONTGOMERY     CLEAR     34  28  79 CALM      30.36R
WHITE PLAINS   CLEAR     41  28  60 CALM      30.38R
ISLIP          MOCLDY    42  39  89 SW6       30.40S
NEW YORK CITY  PTCLDY    50  30  46 SW6       30.40R
CENTRAL PARK   PTCLDY    49  30  48 W3        30.43R
$$

NYZ005>009-017-018-044>046-055-056-280400-
CENTRAL


CITY           SKY/WX    TMP DP  RH WIND       PRES   REMARKS
FULTON         CLOUDY    35  30  82 CALM      30.31R
SYRACUSE       CLOUDY    39  29  67 E3        30.31R
ROME           CLOUDY    34  29  82 CALM      30.34R
ELMIRA         CLOUDY    39  23  52 W6        30.30S WCI  35
BINGHAMTON     MOCLDY    37  24  59 SW9       30.29S WCI  30
$$

NYZ026>034-041>043-087-280400-
NORTH


CITY           SKY/WX    TMP DP  RH WIND       PRES   REMARKS
WATERTOWN      CLOUDY    36  30  79 CALM      30.29R
FORT DRUM      NOT AVBL
OGDENSBURG     FAIR      29  26  88 CALM      30.29S
MASSENA        CLEAR     31  24  75 SW7       30.30R WCI  24
SARANAC LAKE   CLEAR     29  27  92 SW5       30.23S WCI  24
PLATTSBURGH    CLEAR     38  26  62 SW5       30.28R WCI  34
$$

NYZ001>004-010>016-019>021-085-280400-
WEST


CITY           SKY/WX    TMP DP  RH WIND       PRES   REMARKS
NIAGARA FALLS  CLOUDY    36  27  69 CALM      30.26S
BUFFALO        PTCLDY    38  24  57 S3        30.27S
DUNKIRK        CLEAR     34  26  72 CALM      30.26S
JAMESTOWN      CLOUDY    37  25  60 S7        30.24S WCI  32
WELLSVILLE     CLOUDY    40  27  59 S7        30.26F
ROCHESTER      CLEAR     39  24  55 CALM      30.28F
PENN YAN       CLOUDY    37  23  56 S6        30.28F WCI  32
$$

             KEY
       WCI = WIND CHILL INDEX
       VSB = VISIBILITY
       HX  = HEAT INDEX
$$



USA.gov is the U.S. government's official web portal to all federal, state and local government web resources and services.